Weather History for Fort Smith, AR

Change the Weather History Date:

Sunday, January 26, 2014

  Actual Average Record
Temperature  
Mean Temperature 50 °F 40 °F  
Max Temperature 73 °F 51 °F 80 °F (1952)
Min Temperature 27 °F 29 °F 3 °F (1904)
Degree Days  
Heating Degree Days 15 25  
Month to date heating degree days 704 670  
Since 1 July heating degree days 2091 1969  
Moisture  
Dew Point 29 °F    
Average Humidity 51    
Maximum Humidity 85    
Minimum Humidity 17    
Precipitation  
Precipitation 0.00 in 0.09 in 2.50 in (1916)
Month to date precipitation 0.79 2.33  
Year to date precipitation 0.79 2.33  
Sea Level Pressure  
Sea Level Pressure 29.80 in    
Wind  
Wind Speed 5 mph (North)    
Max Wind Speed 15 mph    
Max Gust Speed 20 mph    
Visibility 10 miles    
Events      
T = Trace of Precipitation, MM = Missing Value Source: NWS Daily Summary

Daily Weather History Graph

Daily Weather History Graph

Search for Another Location

Airport:

Trip Planner

Search our weather history database for the weather conditions in past years. The results will help you decide how hot, cold, wet, or windy it might be!

Date:

Astronomy

Jan. 26, 2014 Rise Set
Actual Time 7:20 AM CST 5:39 PM CST
Civil Twilight 6:53 AM CST 6:06 PM CST
Nautical Twilight 6:23 AM CST 6:37 PM CST
Astronomical Twilight 5:53 AM CST 7:07 PM CST
Moon 2:58 AM CST (1/26) 1:30 PM CST (1/26)
Length of Visible Light 11h 12m
Length of Day
10h 18m
Waning Crescent, 23% of the Moon is Illuminated
Jan 26
Waning Crescent
Jan 30
New
Feb 6
First Quarter
Feb 14
Full
Feb 22
Last Quarter

Hourly Weather History & Observations

Time (CST) Temp. Windchill Dew Point Humidity Pressure Visibility Wind Dir Wind Speed Gust Speed Precip Events Conditions
12:53 AM 33.1 °F - 27.0 °F 78% 29.94 in 10.0 mi Calm Calm - N/A   Clear
1:53 AM 33.1 °F 30.0 °F 28.0 °F 82% 29.92 in 10.0 mi NE 3.5 mph - N/A   Clear
2:53 AM 32.0 °F 28.7 °F 27.0 °F 82% 29.91 in 10.0 mi ENE 3.5 mph - N/A   Clear
3:53 AM 34.0 °F - 28.9 °F 82% 29.89 in 10.0 mi Calm Calm - N/A   Clear
4:53 AM 33.1 °F 28.7 °F 28.0 °F 82% 29.88 in 10.0 mi NE 4.6 mph - N/A   Clear
5:53 AM 32.0 °F - 28.0 °F 85% 29.87 in 10.0 mi Calm Calm - N/A   Clear
6:53 AM 30.9 °F 27.5 °F 27.0 °F 85% 29.87 in 10.0 mi East 3.5 mph - N/A   Clear
7:53 AM 32.0 °F 28.7 °F 28.0 °F 85% 29.87 in 10.0 mi ENE 3.5 mph - N/A   Clear
8:53 AM 36.0 °F 33.3 °F 30.9 °F 82% 29.86 in 10.0 mi NE 3.5 mph - N/A   Clear
9:53 AM 41.0 °F 38.0 °F 32.0 °F 70% 29.85 in 10.0 mi East 4.6 mph - N/A   Clear
10:53 AM 46.9 °F - 33.1 °F 59% 29.83 in 10.0 mi NE 6.9 mph - N/A   Clear
11:53 AM 55.0 °F - 34.0 °F 45% 29.80 in 10.0 mi NE 4.6 mph - N/A   Clear
12:53 PM 61.0 °F - 34.0 °F 36% 29.74 in 10.0 mi NE 5.8 mph - N/A   Clear
1:53 PM 66.9 °F - 34.0 °F 30% 29.70 in 10.0 mi WNW 3.5 mph - N/A   Clear
2:53 PM 71.1 °F - 30.9 °F 23% 29.67 in 10.0 mi SW 6.9 mph 16.1 mph N/A   Clear
3:53 PM 72.0 °F - 27.0 °F 19% 29.65 in 10.0 mi West 5.8 mph - N/A   Clear
4:53 PM 69.1 °F - 23.0 °F 18% 29.66 in 10.0 mi West 8.1 mph - N/A   Clear
5:53 PM 61.0 °F - 25.0 °F 25% 29.67 in 10.0 mi SW 9.2 mph - N/A   Clear
6:53 PM 53.1 °F - 24.1 °F 32% 29.70 in 10.0 mi WSW 5.8 mph - N/A   Clear
7:53 PM 50.0 °F - 27.0 °F 41% 29.74 in 10.0 mi West 6.9 mph - N/A   Clear
8:53 PM 55.0 °F - 28.0 °F 35% 29.77 in 10.0 mi West 5.8 mph - N/A   Clear
9:53 PM 55.9 °F - 30.0 °F 37% 29.80 in 10.0 mi NNW 10.4 mph - N/A   Clear
10:53 PM 52.0 °F - 30.0 °F 43% 29.84 in 10.0 mi North 9.2 mph - N/A   Clear
11:53 PM 48.9 °F - 28.9 °F 46% 29.86 in 10.0 mi Calm Calm - N/A   Clear